Location: Chuathbaluk
(61.5726°N, 159.2454°W)
Time: 04:32:33
(UTC+00:00)

Transit 4A - Pass Details

Date: 30 November 2020
Orbit: 864 x 980 km, 66.8° (Epoch: 26 January)

Event Time Altitude Azimuth Distance (km) Brightness Sun altitude
Rises 04:53:09 0° 309° (NW) 3,687 11.7 -22.2°
Reaches altitude 10° 04:59:13 10° 265° (W) 2,710 11.5 -22.9°
Maximum altitude 04:59:26 10° 263° (W) 2,707 11.4 -23.0°
Drops below altitude 10° 04:59:37 10° 261° (W) 2,707 11.4 -23.0°
Sets 05:05:38 0° 217° (SW) 3,611 11.5 -23.7°
